Location: New Plymouth
(39.0670°S, 174.0830°E)
Time: 09:51:57
(UTC+12:00)

ISS - Pass Details

Date: 25 May 2021
Orbit: 417 x 422 km, 51.6° (Epoch: 17 June)

Event Time Altitude Azimuth Distance (km) Brightness Sun altitude
Exits shadow 05:00:02 20° 108° (ESE) 1,074 -1.1 -28.3°
Drops below altitude 10° 05:01:15 10° 117° (ESE) 1,532 -0.2 -28.1°
Sets 05:03:26 0° 123° (ESE) 2,403 0.8 -27.7°
